Location: Praha
(50.0830°N, 14.4670°E)
Time: 17:46:53
(UTC+02:00)

ISS - Pass Details

Date: 22 May 2020
Orbit: 417 x 420 km, 51.6° (Epoch: 26 May)

Event Time Altitude Azimuth Distance (km) Brightness Sun altitude
Rises 01:30:48 0° 287° (WNW) 2,370 0.2 -19.1°
Reaches altitude 10° 01:33:01 10° 277° (W) 1,503 -1.0 -19.1°
Enters shadow 01:33:38 14° 272° (W) 1,276 -1.4 -19.1°
